User: anonymous   Login
Location: Waning Moon II Observatory
(30.3730°N, 89.7620°W)
Time: 02:10:03
(UTC-05:00)
Language:

Meteor 1-21 - Orbit

View from above orbital plane
View from above orbital plane
View from above satellite
View from above satellite

Ground track
Ground track

The orbit data is extracted from the following two-line orbital elements,

1 07714U 75023A   16145.14159903  .00000197  00000-0  10875-3 0  9996
2 07714  81.2113 210.4665 0029106 272.4511  87.3327 14.07930560430441
Epoch (UTC): 24 May 2016 03:23:54
Eccentricity: 0.0029106
inclination: 81.2113°
perigee height: 845 km
apogee height: 887 km
right ascension of ascending node: 210.4665°
argument of perigee: 272.4511°
revolutions per day: 14.07930560
mean anomaly at epoch: 87.3327°
orbit number at epoch: 43044

The dashed part of the orbit path shows where the satellite is in the earth's shadow,  

DLR